FW7079 Weather Reports


Display with metric or nautical units.
time (UTC)temp
F
wind
direction
speed
MPH
gust
MPH
rain 1hr
in
rain 24hr
in
rain mn
in
humidity
%
barometer
mb
20240530011550 74 0 0.0 1.0 0.00 0.01 0.01 74 1017.0
20240530010051 76 61 0.0 2.0 0.00 0.01 0.01 72 1017.0
20240530004602 77 0 0.0 3.0 0.00 0.01 0.01 68 1017.0
20240530003109 78 0.0 0.0 0.00 0.01 0.01 66 1017.2
20240530001555 78 142 0.0 4.0 0.00 0.01 0.01 67 1017.1
20240530000050 79 146 0.0 6.0 0.00 0.01 0.01 63 1017.2
20240529234605 79 146 1.0 8.0 0.00 0.01 0.01 63 1017.3
20240529233106 80 156 1.0 5.0 0.00 0.01 0.01 60 1017.3
20240529231550 80 150 1.0 6.0 0.00 0.01 0.01 60 1017.4
20240529230053 81 137 1.0 4.0 0.00 0.01 0.01 60 1017.4
20240529224559 81 61 1.0 6.0 0.00 0.01 0.01 62 1017.6
20240529223203 81 113 1.0 4.0 0.00 0.01 0.01 59 1017.8
20240529221548 81 142 1.0 4.0 0.00 0.01 0.01 58 1017.7
20240529220050 82 141 2.0 5.0 0.00 0.01 0.01 58 1017.9
20240529214607 82 82 1.0 10.0 0.00 0.01 0.01 60 1017.9
20240529213103 82 136 1.0 7.0 0.00 0.01 0.01 58 1017.9
20240529211556 82 0 1.0 7.0 0.00 0.01 0.01 61 1017.9
20240529210051 82 76 1.0 8.0 0.00 0.01 0.01 64 1018.1
20240529204554 82 127 1.0 7.0 0.00 0.01 0.01 60 1018.3
20240529203057 83 66 1.0 4.0 0.00 0.01 0.01 58 1018.6
20240529201550 83 44 1.0 4.0 0.00 0.01 0.01 62 1018.6
20240529200050 82 44 1.0 4.0 0.00 0.01 0.01 60 1018.8
20240529194551 82 78 1.0 9.0 0.00 0.16 0.01 65 1018.9
20240529193049 81 105 2.0 6.0 0.00 0.16 0.01 60 1019.0
20240529191552 82 34 2.0 7.0 0.00 0.16 0.01 61 1019.1
20240529190100 81 136 2.0 9.0 0.00 0.16 0.01 62 1019.2
20240529184552 80 41 2.0 7.0 0.00 0.24 0.01 67 1019.3
20240529183053 78 44 1.0 0.0 0.00 0.24 0.01 67 1019.5
20240529181556 76 0 1.0 5.0 0.00 0.24 0.01 72 1019.7
20240529180058 74 0 0.0 3.0 0.00 0.24 0.01 75 1019.8
20240529174550 73 105 1.0 4.0 0.00 0.24 0.01 77 1020.1
20240529173052 72 119 0.0 0.0 0.00 0.24 0.01 81 1020.1
20240529171604 71 148 0.0 2.0 0.00 0.24 0.01 85 1020.2
20240529170050 71 0 0.0 3.0 0.00 0.24 0.01 84 1020.4
20240529164550 70 0 0.0 2.0 0.00 0.24 0.01 85 1020.6
20240529163049 70 0 1.0 2.0 0.00 0.24 0.01 84 1020.6
20240529161552 70 126 0.0 3.0 0.00 0.24 0.01 83 1020.8
20240529160103 71 131 0.0 2.0 0.00 0.24 0.01 84 1020.9
20240529154549 70 146 0.0 2.0 0.00 0.24 0.01 85 1021.0
20240529153054 70 0 0.0 1.0 0.00 0.24 0.01 88 1021.0
20240529151553 69 0 0.0 1.0 0.00 0.24 0.01 89 1021.3
20240529150051 68 0 0.0 1.0 0.00 0.24 0.01 91 1021.4
20240529144553 67 0 0.0 0.0 0.00 0.24 0.01 93 1021.5
20240529143052 66 0 0.0 1.0 0.00 0.24 0.01 93 1021.5
20240529141558 66 0 0.0 0.0 0.00 0.24 0.01 93 1021.5
20240529140053 66 0 0.0 0.0 0.00 0.24 0.01 94 1021.5
20240529134559 66 0 0.0 0.0 0.00 0.24 0.01 94 1021.5
20240529133052 66 0 0.0 0.0 0.00 0.24 0.01 94 1021.4
20240529131555 65 0 0.0 0.0 0.00 0.24 0.01 94 1021.3
20240529130052 65 0 0.0 0.0 0.00 0.24 0.01 94 1021.4
20240529124550 65 0 0.0 0.0 0.00 0.24 0.01 94 1021.4
20240529123103 64 0 0.0 0.0 0.00 0.24 0.01 94 1021.2
20240529121552 64 0 0.0 0.0 0.00 0.24 0.01 94 1020.9
20240529120059 63 0 0.0 0.0 0.00 0.24 0.01 94 1020.7
20240529114549 63 0 0.0 0.0 0.00 0.24 0.01 94 1020.2
20240529113051 63 0 0.0 0.0 0.00 0.24 0.01 94 1020.2
20240529111552 63 0 0.0 0.0 0.01 0.24 0.01 94 1020.2
20240529110049 63 0 0.0 0.0 0.01 0.24 0.01 94 1020.0
20240529104547 63 0 0.0 0.0 0.01 0.24 0.01 94 1019.9
20240529103050 63 0 0.0 0.0 0.01 0.24 0.01 94 1019.9
20240529101556 63 0 0.0 0.0 0.00 0.23 0.00 93 1019.2
20240529100049 63 0 0.0 0.0 0.00 0.23 0.00 93 1019.0
20240529094603 64 0 0.0 0.0 0.00 0.23 0.00 93 1018.8
20240529093048 64 0 0.0 0.0 0.00 0.23 0.00 93 1018.9
20240529091624 65 0 0.0 0.0 0.00 0.23 0.00 93 1019.1
20240529090054 65 0 0.0 0.0 0.00 0.23 0.00 93 1019.4
20240529084550 65 0 0.0 0.0 0.00 0.23 0.00 93 1019.2
20240529083054 65 0 0.0 0.0 0.00 0.23 0.00 93 1019.3
20240529081549 65 0 0.0 0.0 0.00 0.23 0.00 93 1019.2
20240529080049 65 0 0.0 0.0 0.00 0.23 0.00 93 1019.3
20240529074555 65 0 0.0 0.0 0.00 0.23 0.00 93 1019.5
20240529073055 65 0 0.0 0.0 0.00 0.23 0.00 93 1019.3
20240529071550 66 0 0.0 0.0 0.00 0.23 0.00 93 1019.3
20240529070102 66 0 0.0 0.0 0.00 0.23 0.00 93 1019.7
20240529064551 66 0 0.0 0.0 0.00 0.23 0.00 93 1019.8
20240529063051 66 0 0.0 0.0 0.00 0.23 0.00 93 1019.8
20240529061559 66 0 0.0 0.0 0.00 0.23 0.00 93 1019.9
20240529060053 66 0 0.0 0.0 0.00 0.23 0.00 93 1019.8
20240529054551 66 0 0.0 0.0 0.00 0.23 0.00 93 1019.7
20240529053052 67 0 0.0 0.0 0.00 0.23 0.00 93 1019.8
20240529051554 67 0 0.0 0.0 0.00 0.23 0.00 93 1019.7
20240529050052 67 0 0.0 0.0 0.00 0.23 0.00 92 1019.8
20240529044549 67 0 0.0 0.0 0.00 0.23 0.23 92 1019.8
20240529043052 67 0 0.0 0.0 0.00 0.23 0.23 92 1019.3
20240529041549 68 0 0.0 1.0 0.00 0.23 0.23 92 1019.4
20240529040100 68 0 0.0 0.0 0.00 0.23 0.23 92 1020.1
20240529035017 68 0 0.0 0.0 0.00 0.23 0.23 92 1020.8
20240529031044 67 0 0.0 0.0 0.00 0.23 0.23 92 1020.7
20240529015750 69 0 0.0 0.0 0.00 0.23 0.23 89 1018.4